{"data":{"norad_id":62574,"intl_designator":"2025-006W","name":"STARLINK-32766","alt_names":[],"object_type":"PAYLOAD","status":"ACTIVE","operator":null,"country":"US","launch_date":"2025-01-10","launch_site_code":"AFETR","launch_vehicle":null,"mission":null,"orbit_class":"UNKNOWN","rcs_meters":null,"size_class":null,"mass_kg":null,"dimensions":null,"purposes":["comms"],"wikipedia_slug":null,"has_3d_model":false,"image_url":null,"decayed_at":null,"tle_current":{"epoch":"2026-05-25T04:43:45.477696Z","epoch_age_seconds":72229,"freshness":"FRESH","line1":"1 62574U 25006W   26145.19705414  .00013110  00000+0  48515-3 0  9997","line2":"2 62574  42.9998 220.4849 0001040 277.9795  82.0939 15.27576426 76567","mean_motion":15.27576426,"eccentricity":0.000104,"inclination_deg":42.9998,"raan_deg":220.4849,"arg_perigee_deg":277.9795,"mean_anomaly_deg":82.0939,"bstar":0.00048515,"rev_number":7656,"period_min":94.266969265209,"perigee_km":482.34623343528,"apogee_km":483.77336236924,"semimajor_km":6861.1967979023,"source":"CELESTRAK","updated_at":"2026-05-25T13:38:19.732531Z"}}}